Osceola, WI

10:06 AM CDT on September 24, 2017 (GMT -0500)
Simenstad Municipal

Weather History for KOEO - October, 2013

Change the Weather History Date:

Wednesday, October 30, 2013

  Actual Average (KANE) Record (KANE)
Temperature  
Mean Temperature 44 °F -  
Max Temperature 49 °F 47 °F 71 °F (2008)
Min Temperature 38 °F 33 °F 23 °F (1996)
Degree Days  
Heating Degree Days 22    
Moisture  
Dew Point 44 °F    
Average Humidity 100    
Maximum Humidity 100    
Minimum Humidity 96    
Precipitation  
Precipitation 0.06 in - - ()
Sea Level Pressure  
Sea Level Pressure 29.94 in    
Wind  
Wind Speed 4 mph (ESE)    
Max Wind Speed 10 mph    
Max Gust Speed 16 mph    
Visibility 3 miles    
Events Fog , Rain    
Averages and records for this station are not official NWS values.
T = Trace of Precipitation, MM = Missing Value Source: NWS Daily Summary

Daily Weather History Graph

Daily Weather History Graph

Search for Another Location

Airport or City:

Trip Planner

Search our weather history database for the weather conditions in past years. The results will help you decide how hot, cold, wet, or windy it might be!

Date:

Astronomy

Oct. 30, 2013 Rise Set
Actual Time 7:47 AM CDT 6:00 PM CDT
Civil Twilight 7:16 AM CDT 6:31 PM CDT
Nautical Twilight 6:41 AM CDT 7:06 PM CDT
Astronomical Twilight 6:07 AM CDT 7:40 PM CDT
Moon 3:25 AM CDT (10/30) 3:55 PM CDT (10/30)
Length of Visible Light 11h 14m
Length of Day
10h 13m
Waning Crescent, 17% of the Moon is Illuminated
Oct 30
Waning Crescent
Nov 3
New
Nov 9
First Quarter
Nov 17
Full
Nov 25
Last Quarter

Hourly Weather History & Observations

Time (CDT) Temp. Windchill Dew Point Humidity Pressure Visibility Wind Dir Wind Speed Gust Speed Precip Events Conditions
12:15 AM 38.3 °F - 37.4 °F 97% 30.13 in 10.0 mi Calm Calm - N/A Rain Rain
12:35 AM 38.5 °F - 37.4 °F 96% 30.13 in 10.0 mi Calm Calm - 0.01 in   Overcast
12:55 AM 38.7 °F - 37.8 °F 97% 30.12 in 10.0 mi Calm Calm - 0.01 in   Overcast
1:15 AM 38.8 °F - 37.9 °F 97% 30.12 in 10.0 mi Calm Calm - N/A   Overcast
1:35 AM 38.8 °F - 38.3 °F 98% 30.12 in 4.0 mi Calm Calm - N/A Rain Heavy Rain
1:55 AM 38.7 °F 36.3 °F 38.5 °F 99% 30.11 in 3.0 mi NE 3.5 mph - 0.01 in   Heavy Drizzle
2:15 AM 38.8 °F 36.5 °F 38.8 °F 100% 30.11 in 4.0 mi East 3.5 mph - 0.01 in Rain Light Rain
2:35 AM 38.8 °F 36.5 °F 38.8 °F 100% 30.11 in 3.0 mi East 3.5 mph - 0.01 in Rain Light Rain
2:55 AM 39.2 °F 37.0 °F 39.2 °F 100% 30.10 in 4.0 mi East 3.5 mph - 0.01 in Rain Light Rain
3:15 AM 39.2 °F 37.0 °F 39.2 °F 100% 30.10 in 2.5 mi East 3.5 mph - 0.01 in   Heavy Drizzle
3:35 AM 39.4 °F 37.2 °F 39.4 °F 100% 30.09 in 3.0 mi East 3.5 mph - 0.02 in Rain Light Rain
3:55 AM 39.6 °F 36.3 °F 39.6 °F 100% 30.08 in 3.0 mi East 4.6 mph - 0.02 in Rain Light Rain
4:15 AM 39.9 °F 36.7 °F 39.9 °F 100% 30.07 in 4.0 mi ESE 4.6 mph - N/A   Overcast
4:35 AM 39.9 °F 35.8 °F 39.9 °F 100% 30.07 in 4.0 mi East 5.8 mph - N/A   Overcast
4:55 AM 40.1 °F 35.3 °F 40.1 °F 100% 30.06 in 3.0 mi ESE 6.9 mph - N/A   Overcast
5:15 AM 40.3 °F 37.1 °F 40.3 °F 100% 30.06 in 3.0 mi ESE 4.6 mph - N/A   Overcast
5:35 AM 40.3 °F 37.1 °F 40.3 °F 100% 30.06 in 3.0 mi ESE 4.6 mph - N/A   Overcast
5:55 AM 40.5 °F 37.3 °F 40.5 °F 100% 30.06 in 3.0 mi ESE 4.6 mph - N/A   Overcast
6:15 AM 40.5 °F 37.3 °F 40.5 °F 100% 30.04 in 4.0 mi East 4.6 mph - N/A   Overcast
6:35 AM 40.6 °F 36.7 °F 40.6 °F 100% 30.04 in 3.0 mi East 5.8 mph - N/A   Overcast
6:55 AM 41.0 °F 39.0 °F 41.0 °F 100% 30.04 in 4.0 mi East 3.5 mph - N/A   Overcast
7:15 AM 41.0 °F 39.0 °F 41.0 °F 100% 30.03 in 3.0 mi East 3.5 mph - N/A   Overcast
7:35 AM 41.0 °F 38.0 °F 41.0 °F 100% 30.03 in 3.0 mi East 4.6 mph - N/A   Overcast
7:55 AM 41.2 °F 37.3 °F 41.2 °F 100% 30.02 in 3.0 mi East 5.8 mph - N/A   Overcast
8:15 AM 41.4 °F 39.4 °F 41.4 °F 100% 30.02 in 2.5 mi East 3.5 mph - N/A   Overcast
8:35 AM 41.5 °F 38.6 °F 41.5 °F 100% 30.02 in 3.0 mi East 4.6 mph - N/A   Overcast
8:55 AM 41.7 °F 38.8 °F 41.7 °F 100% 30.02 in 2.5 mi East 4.6 mph - N/A   Overcast
9:15 AM 41.9 °F 38.2 °F 41.9 °F 100% 30.03 in 2.5 mi East 5.8 mph - N/A   Overcast
9:35 AM 41.9 °F 40.0 °F 41.9 °F 100% 30.02 in 2.5 mi ENE 3.5 mph - N/A   Overcast
9:55 AM 42.1 °F 38.4 °F 42.1 °F 100% 30.03 in 2.5 mi ESE 5.8 mph - N/A   Overcast
10:15 AM 42.3 °F 38.6 °F 42.3 °F 100% 30.03 in 2.5 mi ESE 5.8 mph - N/A   Overcast
10:35 AM 42.8 °F 41.1 °F 42.8 °F 100% 30.02 in 1.8 mi East 3.5 mph - N/A   Overcast
10:55 AM 43.2 °F 40.5 °F 43.2 °F 100% 30.01 in 1.2 mi East 4.6 mph - N/A   Overcast
11:15 AM 43.7 °F 41.1 °F 43.7 °F 100% 29.99 in 1.0 mi East 4.6 mph - N/A   Overcast
11:35 AM 44.4 °F 40.5 °F 44.4 °F 100% 29.97 in 1.2 mi East 6.9 mph - N/A   Overcast
11:55 AM 45.5 °F 40.3 °F 45.5 °F 100% 29.94 in 1.5 mi East 10.4 mph - N/A   Overcast
12:15 PM 45.7 °F 41.0 °F 45.5 °F 99% 29.94 in 2.0 mi SE 9.2 mph - N/A   Overcast
12:35 PM 45.9 °F 41.7 °F 45.7 °F 99% 29.93 in 2.0 mi SE 8.1 mph - N/A   Overcast
12:55 PM 46.6 °F - 46.4 °F 99% 29.89 in 2.5 mi East 10.4 mph 16.1 mph N/A   Overcast
1:15 PM 46.9 °F - 46.6 °F 99% 29.90 in 3.0 mi ESE 6.9 mph - N/A   Overcast
1:35 PM 47.3 °F - 46.8 °F 98% 29.91 in 4.0 mi SE 5.8 mph - N/A   Overcast
1:55 PM 47.3 °F - 46.6 °F 97% 29.92 in 4.0 mi SSE 6.9 mph - N/A   Overcast
2:15 PM 47.3 °F - 46.8 °F 98% 29.91 in 4.0 mi ESE 4.6 mph - N/A   Overcast
2:35 PM 47.5 °F - 47.3 °F 99% 29.88 in 3.0 mi ESE 4.6 mph - N/A   Overcast
2:55 PM 47.3 °F - 47.3 °F 100% 29.87 in 1.2 mi SE 5.8 mph - N/A   Overcast
3:15 PM 47.5 °F - 47.5 °F 100% 29.86 in 1.2 mi SE 5.8 mph - N/A   Overcast
3:35 PM 47.3 °F - 47.3 °F 100% 29.85 in 0.8 mi ESE 5.8 mph - N/A Rain Light Rain
3:55 PM 47.7 °F - 47.7 °F 100% 29.82 in 1.2 mi East 4.6 mph - N/A Rain Light Rain
4:15 PM 47.3 °F - 47.3 °F 100% 29.83 in 2.0 mi ESE 4.6 mph - N/A   Overcast
4:35 PM 47.7 °F - 47.7 °F 100% 29.83 in 3.0 mi SE 3.5 mph - N/A   Overcast
4:55 PM 47.5 °F - 47.5 °F 100% 29.82 in 2.5 mi East 3.5 mph - N/A   Overcast
5:15 PM 47.3 °F - 47.3 °F 100% 29.81 in 1.8 mi ESE 3.5 mph - N/A   Overcast
5:35 PM 47.3 °F - 47.3 °F 100% 29.81 in 1.2 mi ESE 4.6 mph - N/A   Overcast
5:55 PM 47.3 °F - 47.3 °F 100% 29.81 in 0.5 mi SE 4.6 mph - N/A Fog Fog
6:15 PM 47.3 °F - 47.3 °F 100% 29.80 in 1.2 mi ESE 5.8 mph - N/A   Overcast
7:55 PM 47.7 °F - 47.7 °F 100% 29.79 in 1.5 mi ESE 5.8 mph - N/A   Drizzle
8:15 PM 47.7 °F - 47.7 °F 100% 29.79 in 2.0 mi SE 4.6 mph - 0.01 in Rain Rain
8:35 PM 47.7 °F - 47.7 °F 100% 29.78 in 1.8 mi ESE 4.6 mph - 0.01 in Rain Light Rain
8:55 PM 47.8 °F - 47.8 °F 100% 29.77 in 2.0 mi ESE 4.6 mph - 0.01 in   Overcast
9:15 PM 48.2 °F - 48.2 °F 100% 29.76 in 2.5 mi ESE 3.5 mph - N/A   Overcast
9:35 PM 48.2 °F - 48.2 °F 100% 29.76 in 2.5 mi ESE 5.8 mph - N/A   Overcast
9:55 PM 48.4 °F - 48.4 °F 100% 29.75 in 2.5 mi ESE 5.8 mph - N/A   Overcast
10:15 PM 48.7 °F - 48.7 °F 100% 29.74 in 2.5 mi SE 6.9 mph - N/A   Overcast
10:35 PM 49.1 °F - 49.1 °F 100% 29.74 in 2.5 mi SE 4.6 mph - N/A   Overcast
10:55 PM 49.1 °F - 49.1 °F 100% 29.72 in 2.5 mi ESE 3.5 mph - N/A   Overcast
11:15 PM 49.1 °F - 49.1 °F 100% 29.71 in 2.5 mi Calm Calm - N/A   Overcast
11:35 PM 49.3 °F - 49.3 °F 100% 29.69 in 2.5 mi Calm Calm - N/A   Overcast
11:55 PM 49.5 °F - 49.5 °F 100% 29.69 in 2.5 mi Calm Calm - N/A Rain Rain